Regional Weather Roundup
Issued by NWS

Home | Current Version | Previous Version | Graphics & Text | Print | Product List | Glossary Off
Versions: 1 2 3 4 5 6 7 8 9 10 11 12 13 14 15 16 17 18 19 20 21 22 23 24 25 26 27 28 29 30 31 32 33 34 35 36 37 38 39 40 41 42 43 44 45 46 47 48 49 50

562
ASUS43 KDTX 201410
RWRMI
MICHIGAN HOURLY REGIONAL WEATHER ROUNDUP
NATIONAL WEATHER SERVICE DETROIT/PONTIAC MI
900 AM EST FRI JAN 20 2017

NOTE: "FAIR" INDICATES FEW OR NO CLOUDS BELOW 12,000 FEET WITH NO
SIGNIFICANT WEATHER AND/OR OBSTRUCTION TO VISIBILITY.

MIZ047>049-052>055-059>063-066>070-074>076-081>083-201500-
SOUTHEAST LOWER MICHIGAN

CITY           SKY/WX    TMP DP  RH WIND       PRES   REMARKS
ADRIAN         LGT RAIN  34  34 100 E9        29.63F FOG     WCI  27
ALMA           CLOUDY    32  32 100 NE6       29.71R FOG     WCI  26
ANN ARBOR      CLOUDY    34  34 100 NE9       29.65F FOG     WCI  27
BAD AXE        FOG       32  32 100 E6        29.73S VSB 1/4 WCI  26
CARO           CLOUDY    32  32  99 E6        29.69F FOG     WCI  27
DETROIT CITY   RAIN      34  34 100 E9        29.71R FOG     WCI  27
DETROIT        CLOUDY    36  34  92 NE10      29.68F FOG     WCI  28
FLINT          LGT RAIN  33  31  92 NE5       29.69R FOG     WCI  29
GROSSE ILE     DRIZZLE   35  34  96 E8        29.66S WCI  29
HILLSDALE      DRIZZLE   32  32 100 E12       29.59F WCI  23
HOWELL         RAIN      33  32  96 E6        29.66S WCI  28

CITY           SKY/WX    TMP DP  RH WIND       PRES   REMARKS
JACKSON        MIX PCPN  34  32  92 E10       29.63S FOG     WCI  26
LAMBERTVILLE   CLOUDY    36  35  94 E9        29.64S FOG     WCI  29
LANSING        LGT RAIN  34  31  88 NE7       29.67F VSB 1   WCI  28
LAPEER         CLOUDY    33  33 100 SE6       29.69R FOG     WCI  28
MASON          LGT RAIN  33  33  99 NE6       29.65F WCI  28
MONROE         DRIZZLE   36  36 100 E9G16     29.64F WCI  29
MT. CLEMENS    LGT RAIN  34  34 100 E10       29.68R FOG     WCI  26
PONTIAC        LGT RAIN  32  31  96 SE9       29.68R FOG     WCI  24
PORT HOPE        N/A     33  33 100 E10       29.73F WCI  25
PORT HURON     MIX PCPN  32  32 100 E9        29.71S WCI  24
TRI CITIES     FOG       32  32 100 NE12      29.71S VSB 1/4 WCI  23
MIDLAND        CLOUDY    32  32  99 NE5       29.71S FOG     WCI  27
TROY           LGT RAIN  35  33  94 E6        29.72R WCI  30
SAGINAW HB     FOG       32  32 100 NE6       29.71R VSB 1   WCI  26
$$
MIZ043>046-050>051-056>058-064>065-071>073-077>080-201500-
SOUTHWEST LOWER MICHIGAN

CITY           SKY/WX    TMP DP  RH WIND       PRES   REMARKS
BATTLE CREEK   LGT RAIN  36  35  96 NE8       29.63S FOG     WCI  30
BENTON HARBOR  CLOUDY    38  36  92 E5        29.63R FOG     WCI  34
BIG RAPIDS     CLOUDY    32  31  96 CALM      29.68F FOG
COLDWATER      CLOUDY    36  36 100 NE3       29.61S FOG
FREMONT        RAIN      34  34 100 NE5       29.69S WCI  30
HOLLAND        LGT RAIN  36  34  92 NE8       29.66S WCI  30
GRAND RAPIDS   LGT RAIN  34  32  92 NE12      29.66F FOG     WCI  25
IONIA          LGT SNOW  32  32 100 NE8       29.67S WCI  25
KALAMAZOO      LGT RAIN  37  33  85 NE5       29.63S FOG     WCI  33
LUDINGTON      LGT RAIN  35  34  96 CALM      29.70S
MARSHALL       LGT RAIN  35  34  98 NE5       29.62S WCI  31
MOUNT PLEASANT CLOUDY    32  31  99 N7        29.69F FOG     WCI  25
MUSKEGON       LGT RAIN  36  34  92 NE7       29.68S FOG     WCI  30
SOUTH HAVEN    CLOUDY    37  36  97 E5        29.64S FOG     WCI  33
$$
MIZ016>042-201500-
NORTHERN LOWER MICHIGAN

CITY           SKY/WX    TMP DP  RH WIND       PRES   REMARKS
ALPENA         FOG       33  32  96 SE7       29.78S VSB 1/4 WCI  27
BEAVER ISLAND  FOG       31  31 100 E5        29.75S VSB 1/4 WCI  27
BELLAIRE       CLOUDY    31  31  99 CALM      29.74R FOG
CADILLAC       MIX PCPN  32  32  98 E6        29.69R WCI  27
CHARLEVOIX     CLOUDY    31  31 100 E3        29.77R FOG
FRANKFORT      CLOUDY    34  33  98 CALM      29.71S FOG
GAYLORD        CLOUDY    32  29  88 CALM      29.72R FOG
GRAYLING       FOG       32  32  99 E6        29.73S VSB 3/4 WCI  26
HARBOR SPRINGS FOG       31  31 100 E10       29.75R VSB 3/4 WCI  22
HOUGHTON LAKE  CLOUDY    31  30  96 E7        29.71F FOG     WCI  24
MANISTEE       CLOUDY    34  33  96 E3        29.71S
OSCODA         FOG       34  33  97 E6        29.75S VSB 3/4 WCI  29
PELLSTON       FOG       31  30  96 SE6       29.76S VSB 1/2 WCI  25
ROGERS CITY    CLOUDY    32  32  99 SE7       29.79R FOG     WCI  26
TRAVERSE CITY  CLOUDY    33  31  92 CALM      29.72S FOG
$$
MIZ007>008-015-201500-
EASTERN UPPER MICHIGAN

CITY           SKY/WX    TMP DP  RH WIND       PRES   REMARKS
KINROSS        CLOUDY    32  30  93 SE14      29.78R FOG     WCI  22
MACKINAC ISLAN FOG       32  32 100 E10G18    29.77R VSB 1/4 WCI  23
NEWBERRY       FOG       32  31  97 SE7       29.76R VSB 1/2 WCI  25
S. S. MARIE    CLOUDY    34  32  92 SE10      29.78R FOG     WCI  26
MUNISING         N/A     33  33 100 S7        29.74R WCI  27
$$
MIZ004>006-011>014-085-201500-
CENTRAL UPPER MICHIGAN

CITY           SKY/WX    TMP DP  RH WIND       PRES   REMARKS
MANISTIQUE     FOG       31  31  98 E7        29.75S VSB 1/4 WCI  25
ESCANABA       FOG       32  32 100 NE3       29.74S VSB<1/4
SAWYER-GWINN   FOG       25  25 100 S3        29.71S VSB 0
$$
MIZ001>003-009>011-084-201500-
WESTERN UPPER MICHIGAN

CITY           SKY/WX    TMP DP  RH WIND       PRES   REMARKS
IRON MOUNTAIN  CLOUDY    30  28  92 CALM      29.70S FOG
HOUGHTON       CLOUDY    24  21  88 N5        29.68S WCI  18
COPPER HARBOR    N/A     28  27  96 SW6       29.71R WCI  22
IRONWOOD       CLOUDY    34  30  85 SE3       29.70R
$$

ABBREVIATIONS USED IN REMARKS
   TC - TEMPERATURE IN CELSIUS
  WCI - WIND CHILL INDEX
   HX - HEAT INDEX
  VSB - VISIBILITY





USA.gov is the U.S. government's official web portal to all federal, state and local government web resources and services.